| time (UTC) | temp F | wind direction | speed MPH | gust MPH | rain 1hr in | rain 24hr in | rain mn in | humidity % | barometer mb |
| 20260506194137 | 55 | 187 | 0.0 | 3.0 | 0.00 | 0.00 | 0.00 | 62 | 1013.1 |
| 20260506193637 | 55 | 148 | 1.0 | 1.0 | 0.00 | 0.00 | 0.00 | 61 | 1013.1 |
| 20260506193217 | 56 | 290 | 2.0 | 2.0 | 0.00 | 0.00 | 0.00 | 61 | 1012.9 |
| 20260506192637 | 55 | 305 | 2.0 | 4.0 | 0.00 | 0.00 | 0.00 | 61 | 1012.9 |
| 20260506192137 | 56 | 0.0 | 2.0 | 0.00 | 0.00 | 0.00 | 61 | 1012.9 | |
| 20260506191638 | 55 | 269 | 2.0 | 4.0 | 0.00 | 0.00 | 0.00 | 61 | 1012.9 |
| 20260506191137 | 56 | 292 | 1.0 | 3.0 | 0.00 | 0.00 | 0.00 | 60 | 1012.8 |
| 20260506190640 | 56 | 295 | 2.0 | 7.0 | 0.00 | 0.00 | 0.00 | 60 | 1012.7 |
| 20260506190137 | 56 | 131 | 1.0 | 2.0 | 0.00 | 0.00 | 0.00 | 60 | 1012.6 |
| 20260506185638 | 56 | 105 | 1.0 | 5.0 | 0.00 | 0.00 | 0.00 | 60 | 1012.6 |
| 20260506185158 | 56 | 101 | 3.0 | 5.0 | 0.00 | 0.00 | 0.00 | 59 | 1012.5 |
| 20260506184637 | 56 | 294 | 2.0 | 3.0 | 0.00 | 0.00 | 0.00 | 59 | 1012.4 |
| 20260506184217 | 56 | 295 | 4.0 | 6.0 | 0.00 | 0.00 | 0.00 | 59 | 1012.3 |
| 20260506183637 | 56 | 272 | 2.0 | 6.0 | 0.00 | 0.00 | 0.00 | 58 | 1012.3 |
| 20260506183138 | 56 | 286 | 4.0 | 7.0 | 0.00 | 0.00 | 0.00 | 57 | 1012.2 |
| 20260506182638 | 56 | 296 | 3.0 | 7.0 | 0.00 | 0.00 | 0.00 | 56 | 1012.1 |
| 20260506182137 | 57 | 344 | 2.0 | 5.0 | 0.00 | 0.00 | 0.00 | 55 | 1012.1 |
| 20260506181717 | 57 | 289 | 2.0 | 4.0 | 0.00 | 0.00 | 0.00 | 54 | 1012.0 |
| 20260506181137 | 57 | 323 | 1.0 | 7.0 | 0.00 | 0.00 | 0.00 | 53 | 1012.0 |
| 20260506180627 | 57 | 309 | 1.0 | 2.0 | 0.00 | 0.00 | 0.00 | 52 | 1011.9 |
| 20260506180138 | 57 | 226 | 2.0 | 3.0 | 0.00 | 0.00 | 0.00 | 52 | 1011.9 |
| 20260506175637 | 57 | 314 | 5.0 | 7.0 | 0.00 | 0.00 | 0.00 | 51 | 1011.9 |
| 20260506175158 | 57 | 275 | 2.0 | 5.0 | 0.00 | 0.00 | 0.00 | 51 | 1011.8 |
| 20260506174638 | 57 | 317 | 2.0 | 7.0 | 0.00 | 0.00 | 0.00 | 51 | 1011.7 |
| 20260506174138 | 57 | 105 | 3.0 | 5.0 | 0.00 | 0.00 | 0.00 | 50 | 1011.6 |
| 20260506173637 | 57 | 276 | 2.0 | 6.0 | 0.00 | 0.00 | 0.00 | 50 | 1011.5 |
| 20260506173140 | 57 | 315 | 3.0 | 5.0 | 0.00 | 0.00 | 0.00 | 50 | 1011.5 |
| 20260506172638 | 57 | 354 | 4.0 | 9.0 | 0.00 | 0.00 | 0.00 | 49 | 1011.4 |
| 20260506172138 | 57 | 288 | 1.0 | 5.0 | 0.00 | 0.00 | 0.00 | 48 | 1011.4 |
| 20260506171638 | 57 | 348 | 2.0 | 7.0 | 0.00 | 0.00 | 0.00 | 48 | 1011.4 |
| 20260506171137 | 57 | 280 | 3.0 | 5.0 | 0.00 | 0.00 | 0.00 | 48 | 1011.3 |
| 20260506170658 | 58 | 220 | 1.0 | 1.0 | 0.00 | 0.00 | 0.00 | 47 | 1011.3 |
| 20260506170137 | 58 | 0.0 | 2.0 | 0.00 | 0.00 | 0.00 | 48 | 1011.3 | |
| 20260506165638 | 58 | 340 | 0.0 | 2.0 | 0.00 | 0.00 | 0.00 | 48 | 1011.3 |
| 20260506165217 | 58 | 152 | 1.0 | 3.0 | 0.00 | 0.00 | 0.00 | 50 | 1011.2 |
| 20260506164637 | 58 | 160 | 1.0 | 4.0 | 0.00 | 0.00 | 0.00 | 49 | 1011.2 |
| 20260506164137 | 59 | 143 | 2.0 | 4.0 | 0.00 | 0.00 | 0.00 | 50 | 1011.3 |
| 20260506163638 | 59 | 145 | 0.0 | 2.0 | 0.00 | 0.00 | 0.00 | 48 | 1011.2 |
| 20260506163138 | 59 | 0.0 | 3.0 | 0.00 | 0.00 | 0.00 | 47 | 1011.2 | |
| 20260506162637 | 59 | 73 | 2.0 | 4.0 | 0.00 | 0.00 | 0.00 | 47 | 1011.2 |
| 20260506162137 | 59 | 257 | 1.0 | 3.0 | 0.00 | 0.00 | 0.00 | 47 | 1011.2 |
| 20260506161638 | 60 | 177 | 2.0 | 4.0 | 0.00 | 0.00 | 0.00 | 46 | 1011.2 |
| 20260506161138 | 60 | 286 | 1.0 | 2.0 | 0.00 | 0.00 | 0.00 | 46 | 1011.2 |
| 20260506160638 | 60 | 224 | 0.0 | 2.0 | 0.00 | 0.00 | 0.00 | 46 | 1011.1 |
| 20260506160138 | 60 | 247 | 1.0 | 4.0 | 0.00 | 0.00 | 0.00 | 45 | 1011.1 |
| 20260506155640 | 60 | 112 | 1.0 | 2.0 | 0.00 | 0.00 | 0.00 | 46 | 1011.1 |
| 20260506155137 | 60 | 0.0 | 2.0 | 0.00 | 0.00 | 0.00 | 46 | 1011.2 | |
| 20260506154658 | 59 | 235 | 3.0 | 9.0 | 0.00 | 0.00 | 0.00 | 45 | 1011.1 |
| 20260506154137 | 60 | 197 | 3.0 | 5.0 | 0.00 | 0.00 | 0.00 | 44 | 1011.1 |
| 20260506153638 | 60 | 277 | 4.0 | 6.0 | 0.00 | 0.00 | 0.00 | 44 | 1011.1 |
| 20260506153138 | 60 | 287 | 3.0 | 5.0 | 0.00 | 0.00 | 0.00 | 43 | 1011.0 |
| 20260506152658 | 60 | 252 | 3.0 | 6.0 | 0.00 | 0.00 | 0.00 | 42 | 1011.1 |
| 20260506152138 | 60 | 275 | 4.0 | 7.0 | 0.00 | 0.00 | 0.00 | 42 | 1011.1 |
| 20260506151638 | 60 | 137 | 1.0 | 4.0 | 0.00 | 0.00 | 0.00 | 41 | 1011.0 |
| 20260506151137 | 60 | 293 | 4.0 | 8.0 | 0.00 | 0.00 | 0.00 | 41 | 1011.1 |
| 20260506150638 | 61 | 298 | 3.0 | 7.0 | 0.00 | 0.00 | 0.00 | 40 | 1011.0 |
| 20260506150138 | 60 | 359 | 3.0 | 10.0 | 0.00 | 0.00 | 0.00 | 40 | 1011.0 |
| 20260506145638 | 61 | 291 | 3.0 | 8.0 | 0.00 | 0.00 | 0.00 | 40 | 1011.0 |
| 20260506145137 | 61 | 260 | 4.0 | 6.0 | 0.00 | 0.00 | 0.00 | 39 | 1011.0 |
| 20260506144738 | 62 | 220 | 3.0 | 10.0 | 0.00 | 0.00 | 0.00 | 38 | 1011.0 |
| 20260506144138 | 62 | 294 | 2.0 | 7.0 | 0.00 | 0.00 | 0.00 | 40 | 1011.1 |
| 20260506143718 | 61 | 308 | 5.0 | 14.0 | 0.00 | 0.00 | 0.00 | 40 | 1011.0 |
| 20260506143157 | 62 | 242 | 4.0 | 6.0 | 0.00 | 0.00 | 0.00 | 40 | 1011.0 |
| 20260506142638 | 62 | 180 | 3.0 | 5.0 | 0.00 | 0.00 | 0.00 | 41 | 1011.0 |
| 20260506142141 | 61 | 200 | 4.0 | 6.0 | 0.00 | 0.00 | 0.00 | 41 | 1011.1 |
| 20260506141638 | 61 | 214 | 4.0 | 7.0 | 0.00 | 0.00 | 0.00 | 41 | 1011.0 |
| 20260506141138 | 60 | 163 | 8.0 | 11.0 | 0.00 | 0.00 | 0.00 | 42 | 1011.1 |
| 20260506140658 | 60 | 283 | 3.0 | 5.0 | 0.00 | 0.00 | 0.00 | 42 | 1011.0 |
| 20260506140138 | 61 | 308 | 3.0 | 5.0 | 0.00 | 0.00 | 0.00 | 42 | 1011.1 |
| 20260506135638 | 59 | 352 | 5.0 | 9.0 | 0.00 | 0.00 | 0.00 | 43 | 1010.9 |
| 20260506135138 | 60 | 40 | 2.0 | 10.0 | 0.00 | 0.00 | 0.00 | 43 | 1011.0 |
| 20260506134639 | 61 | 281 | 3.0 | 9.0 | 0.00 | 0.00 | 0.00 | 43 | 1010.9 |
| 20260506134158 | 61 | 293 | 2.0 | 4.0 | 0.00 | 0.00 | 0.00 | 41 | 1010.9 |
| 20260506133638 | 61 | 54 | 3.0 | 5.0 | 0.00 | 0.00 | 0.00 | 41 | 1010.8 |
| 20260506133138 | 62 | 157 | 3.0 | 10.0 | 0.00 | 0.00 | 0.00 | 40 | 1010.9 |
| 20260506132658 | 61 | 95 | 5.0 | 7.0 | 0.00 | 0.00 | 0.00 | 40 | 1010.9 |
| 20260506132138 | 61 | 329 | 3.0 | 8.0 | 0.00 | 0.00 | 0.00 | 42 | 1010.9 |
| 20260506131638 | 62 | 143 | 3.0 | 6.0 | 0.00 | 0.00 | 0.00 | 40 | 1010.8 |
| 20260506131138 | 60 | 312 | 6.0 | 10.0 | 0.00 | 0.00 | 0.00 | 42 | 1010.9 |
| 20260506130638 | 60 | 294 | 5.0 | 12.0 | 0.00 | 0.00 | 0.00 | 44 | 1010.8 |
| 20260506130138 | 61 | 290 | 4.0 | 8.0 | 0.00 | 0.00 | 0.00 | 44 | 1010.8 |
| 20260506125638 | 60 | 119 | 4.0 | 10.0 | 0.00 | 0.00 | 0.00 | 44 | 1010.8 |
| 20260506125159 | 60 | 309 | 6.0 | 7.0 | 0.00 | 0.00 | 0.00 | 44 | 1010.7 |
| 20260506124641 | 61 | 290 | 3.0 | 7.0 | 0.00 | 0.00 | 0.00 | 42 | 1010.7 |
| 20260506124138 | 61 | 274 | 2.0 | 6.0 | 0.00 | 0.00 | 0.00 | 45 | 1010.8 |
| 20260506123639 | 60 | 73 | 2.0 | 7.0 | 0.00 | 0.00 | 0.00 | 49 | 1010.8 |
| 20260506123138 | 59 | 291 | 3.0 | 5.0 | 0.00 | 0.00 | 0.00 | 52 | 1010.8 |
| 20260506122638 | 58 | 302 | 11.0 | 13.0 | 0.00 | 0.00 | 0.00 | 52 | 1010.7 |
| 20260506122138 | 60 | 272 | 5.0 | 8.0 | 0.00 | 0.00 | 0.00 | 48 | 1010.7 |
| 20260506121638 | 60 | 231 | 3.0 | 4.0 | 0.00 | 0.00 | 0.00 | 49 | 1010.6 |
| 20260506121138 | 60 | 348 | 2.0 | 9.0 | 0.00 | 0.00 | 0.00 | 48 | 1010.7 |
| 20260506120638 | 60 | 295 | 6.0 | 8.0 | 0.00 | 0.00 | 0.00 | 48 | 1010.7 |
| 20260506120138 | 59 | 344 | 6.0 | 7.0 | 0.00 | 0.00 | 0.00 | 46 | 1010.5 |
| 20260506115659 | 59 | 299 | 5.0 | 11.0 | 0.00 | 0.00 | 0.00 | 45 | 1010.6 |
| 20260506115138 | 60 | 257 | 2.0 | 4.0 | 0.00 | 0.00 | 0.00 | 46 | 1010.5 |
| 20260506114638 | 59 | 301 | 8.0 | 9.0 | 0.00 | 0.00 | 0.00 | 45 | 1010.5 |
| 20260506114138 | 59 | 323 | 8.0 | 14.0 | 0.00 | 0.00 | 0.00 | 46 | 1010.5 |
| 20260506113638 | 59 | 113 | 6.0 | 6.0 | 0.00 | 0.00 | 0.00 | 53 | 1010.6 |
| 20260506113138 | 59 | 295 | 5.0 | 7.0 | 0.00 | 0.00 | 0.00 | 52 | 1010.6 |
| 20260506112608 | 58 | 267 | 2.0 | 6.0 | 0.00 | 0.00 | 0.00 | 57 | 1010.5 |
| 20260506112038 | 57 | 344 | 5.0 | 9.0 | 0.00 | 0.00 | 0.00 | 61 | 1010.5 |
| 20260506111538 | 57 | 312 | 5.0 | 10.0 | 0.00 | 0.00 | 0.00 | 61 | 1010.6 |
| 20260506111038 | 56 | 313 | 6.0 | 7.0 | 0.00 | 0.00 | 0.00 | 61 | 1010.7 |
| 20260506110538 | 57 | 37 | 4.0 | 10.0 | 0.00 | 0.00 | 0.00 | 62 | 1010.7 |
| 20260506110039 | 57 | 354 | 6.0 | 10.0 | 0.00 | 0.00 | 0.00 | 61 | 1010.7 |
| 20260506105538 | 57 | 337 | 7.0 | 8.0 | 0.00 | 0.00 | 0.00 | 59 | 1010.6 |
| 20260506105038 | 58 | 290 | 0.0 | 4.0 | 0.00 | 0.00 | 0.00 | 57 | 1010.6 |
| 20260506104558 | 58 | 306 | 4.0 | 5.0 | 0.00 | 0.00 | 0.00 | 57 | 1010.6 |
| 20260506104038 | 58 | 190 | 2.0 | 9.0 | 0.00 | 0.00 | 0.00 | 56 | 1010.5 |
| 20260506103528 | 58 | 318 | 3.0 | 7.0 | 0.00 | 0.00 | 0.00 | 55 | 1010.5 |
| 20260506102908 | 58 | 206 | 3.0 | 5.0 | 0.00 | 0.00 | 0.00 | 53 | 1010.5 |
| 20260506102358 | 59 | 315 | 6.0 | 12.0 | 0.00 | 0.00 | 0.00 | 52 | 1010.6 |
| 20260506101838 | 59 | 195 | 3.0 | 8.0 | 0.00 | 0.00 | 0.00 | 51 | 1010.5 |
| 20260506101338 | 58 | 21 | 3.0 | 6.0 | 0.00 | 0.00 | 0.00 | 54 | 1010.5 |
| 20260506100838 | 58 | 16 | 6.0 | 10.0 | 0.00 | 0.00 | 0.00 | 57 | 1010.4 |
| 20260506100338 | 58 | 353 | 2.0 | 8.0 | 0.00 | 0.00 | 0.00 | 60 | 1010.5 |
| 20260506095858 | 59 | 309 | 6.0 | 10.0 | 0.00 | 0.00 | 0.00 | 57 | 1010.5 |
| 20260506095338 | 59 | 306 | 7.0 | 11.0 | 0.00 | 0.00 | 0.00 | 57 | 1010.5 |
| 20260506094858 | 59 | 304 | 7.0 | 7.0 | 0.00 | 0.00 | 0.00 | 58 | 1010.5 |
| 20260506094358 | 59 | 295 | 5.0 | 7.0 | 0.00 | 0.00 | 0.00 | 59 | 1010.4 |
| 20260506093808 | 58 | 147 | 3.0 | 8.0 | 0.00 | 0.00 | 0.00 | 60 | 1010.3 |
| 20260506093208 | 58 | 325 | 7.0 | 9.0 | 0.00 | 0.00 | 0.00 | 62 | 1010.4 |
| 20260506092638 | 57 | 300 | 5.0 | 8.0 | 0.00 | 0.00 | 0.00 | 65 | 1010.4 |
| 20260506092138 | 56 | 310 | 4.0 | 9.0 | 0.00 | 0.00 | 0.00 | 66 | 1010.4 |
| 20260506091658 | 57 | 288 | 6.0 | 8.0 | 0.00 | 0.00 | 0.00 | 65 | 1010.4 |
| 20260506091138 | 57 | 17 | 6.0 | 10.0 | 0.00 | 0.00 | 0.00 | 65 | 1010.3 |
| 20260506090638 | 57 | 319 | 2.0 | 4.0 | 0.00 | 0.00 | 0.00 | 66 | 1010.3 |
| 20260506090158 | 56 | 7 | 6.0 | 10.0 | 0.00 | 0.00 | 0.00 | 67 | 1010.3 |
| 20260506085638 | 57 | 20 | 4.0 | 9.0 | 0.00 | 0.00 | 0.00 | 67 | 1010.4 |
| 20260506085138 | 57 | 20 | 6.0 | 10.0 | 0.00 | 0.00 | 0.00 | 67 | 1010.3 |
| 20260506084658 | 57 | 291 | 10.0 | 14.0 | 0.00 | 0.00 | 0.00 | 67 | 1010.2 |
| 20260506084108 | 57 | 344 | 4.0 | 7.0 | 0.00 | 0.00 | 0.00 | 67 | 1010.1 |
| 20260506083509 | 56 | 309 | 12.0 | 12.0 | 0.00 | 0.00 | 0.00 | 68 | 1010.2 |
| 20260506082939 | 56 | 343 | 3.0 | 9.0 | 0.00 | 0.00 | 0.00 | 69 | 1010.2 |
| 20260506082438 | 56 | 312 | 4.0 | 8.0 | 0.00 | 0.00 | 0.00 | 69 | 1010.2 |
| 20260506081939 | 57 | 281 | 3.0 | 4.0 | 0.00 | 0.00 | 0.00 | 69 | 1010.2 |
| 20260506081438 | 55 | 340 | 4.0 | 8.0 | 0.00 | 0.00 | 0.00 | 72 | 1010.2 |
| 20260506080938 | 56 | 40 | 4.0 | 7.0 | 0.00 | 0.00 | 0.00 | 71 | 1010.2 |
| 20260506080458 | 56 | 317 | 5.0 | 6.0 | 0.00 | 0.00 | 0.00 | 71 | 1010.2 |
| 20260506073238 | 55 | 319 | 5.0 | 9.0 | 0.00 | 0.00 | 0.00 | 73 | 1010.1 |
| 20260506072738 | 55 | 334 | 6.0 | 8.0 | 0.00 | 0.00 | 0.00 | 72 | 1010.2 |
| 20260506072238 | 55 | 315 | 7.0 | 9.0 | 0.00 | 0.00 | 0.00 | 71 | 1010.1 |
| 20260506071738 | 55 | 65 | 3.0 | 4.0 | 0.00 | 0.00 | 0.00 | 73 | 1010.1 |
| 20260506071238 | 55 | 283 | 5.0 | 9.0 | 0.00 | 0.00 | 0.00 | 72 | 1010.1 |
| 20260506070738 | 55 | 278 | 3.0 | 9.0 | 0.00 | 0.00 | 0.00 | 74 | 1010.0 |
| 20260506070239 | 55 | 338 | 3.0 | 9.0 | 0.00 | 0.00 | 0.00 | 75 | 1010.0 |
| 20260506062138 | 53 | 294 | 3.0 | 5.0 | 0.00 | 0.00 | 0.00 | 80 | 1009.9 |
| 20260506061638 | 53 | 317 | 2.0 | 5.0 | 0.00 | 0.00 | 0.00 | 81 | 1009.8 |
| 20260506061138 | 53 | 320 | 3.0 | 5.0 | 0.00 | 0.00 | 0.00 | 81 | 1009.7 |
| 20260506060638 | 52 | 340 | 4.0 | 6.0 | 0.00 | 0.00 | 0.00 | 81 | 1009.7 |
| 20260506060138 | 52 | 310 | 2.0 | 7.0 | 0.00 | 0.00 | 0.00 | 82 | 1009.8 |
| 20260506051039 | 51 | 338 | 3.0 | 5.0 | 0.00 | 0.00 | 0.00 | 84 | 1009.8 |
| 20260506050539 | 51 | 331 | 4.0 | 8.0 | 0.00 | 0.00 | 0.00 | 84 | 1009.9 |
| 20260506045038 | 50 | 310 | 2.0 | 7.0 | 0.00 | 0.00 | 0.00 | 84 | 1009.9 |
| 20260506044559 | 50 | 294 | 5.0 | 7.0 | 0.00 | 0.00 | 0.00 | 84 | 1009.8 |
| 20260506044039 | 50 | 2 | 2.0 | 7.0 | 0.00 | 0.00 | 0.00 | 84 | 1009.9 |
| 20260506043539 | 50 | 321 | 4.0 | 5.0 | 0.00 | 0.00 | 0.00 | 85 | 1009.9 |
| 20260506043038 | 50 | 347 | 2.0 | 5.0 | 0.00 | 0.00 | 0.00 | 84 | 1009.8 |
| 20260506042539 | 50 | 337 | 4.0 | 7.0 | 0.00 | 0.00 | 0.00 | 84 | 1009.8 |
| 20260506042039 | 50 | 306 | 4.0 | 6.0 | 0.00 | 0.00 | 0.00 | 85 | 1009.9 |
| 20260506041538 | 50 | 341 | 4.0 | 5.0 | 0.00 | 0.00 | 0.00 | 84 | 1009.9 |
| 20260506041039 | 50 | 355 | 3.0 | 7.0 | 0.00 | 0.00 | 0.00 | 83 | 1009.9 |
| 20260506040539 | 50 | 347 | 4.0 | 5.0 | 0.00 | 0.00 | 0.00 | 82 | 1009.9 |
| 20260506040039 | 50 | 5 | 3.0 | 8.0 | 0.00 | 0.00 | 0.00 | 81 | 1009.9 |
| 20260506035600 | 50 | 316 | 3.0 | 5.0 | 0.00 | 0.00 | 0.00 | 81 | 1010.0 |
| 20260506035038 | 50 | 352 | 6.0 | 7.0 | 0.00 | 0.00 | 0.00 | 80 | 1009.9 |
| 20260506034539 | 50 | 25 | 3.0 | 7.0 | 0.00 | 0.00 | 0.00 | 80 | 1009.9 |
| 20260506034039 | 50 | 26 | 7.0 | 10.0 | 0.00 | 0.00 | 0.00 | 80 | 1010.0 |
| 20260506033539 | 50 | 316 | 4.0 | 6.0 | 0.00 | 0.00 | 0.00 | 81 | 1010.0 |
| 20260506033039 | 50 | 294 | 4.0 | 5.0 | 0.00 | 0.00 | 0.00 | 81 | 1010.0 |
| 20260506032538 | 50 | 341 | 3.0 | 4.0 | 0.00 | 0.00 | 0.00 | 82 | 1010.0 |
| 20260506032039 | 50 | 358 | 3.0 | 4.0 | 0.00 | 0.00 | 0.00 | 82 | 1010.0 |
| 20260506031539 | 50 | 319 | 2.0 | 5.0 | 0.00 | 0.00 | 0.00 | 82 | 1010.1 |
| 20260506031039 | 50 | 59 | 3.0 | 6.0 | 0.00 | 0.00 | 0.00 | 82 | 1010.1 |
| 20260506030538 | 50 | 346 | 3.0 | 5.0 | 0.00 | 0.00 | 0.00 | 82 | 1010.2 |
| 20260506030039 | 49 | 12 | 3.0 | 4.0 | 0.00 | 0.00 | 0.00 | 83 | 1010.2 |
| 20260506025539 | 49 | 339 | 2.0 | 5.0 | 0.00 | 0.00 | 0.00 | 83 | 1010.1 |
| 20260506025039 | 49 | 333 | 4.0 | 8.0 | 0.00 | 0.00 | 0.00 | 83 | 1010.3 |
| 20260506024538 | 49 | 315 | 2.0 | 3.0 | 0.00 | 0.00 | 0.00 | 83 | 1010.3 |
| 20260506024058 | 49 | 316 | 1.0 | 6.0 | 0.00 | 0.00 | 0.00 | 83 | 1010.3 |
| 20260506023539 | 49 | 323 | 2.0 | 3.0 | 0.00 | 0.00 | 0.00 | 83 | 1010.3 |
| 20260506023039 | 49 | 343 | 1.0 | 6.0 | 0.00 | 0.00 | 0.00 | 83 | 1010.3 |
| 20260506022539 | 49 | 313 | 1.0 | 3.0 | 0.00 | 0.00 | 0.00 | 83 | 1010.3 |
| 20260506022040 | 49 | 290 | 6.0 | 7.0 | 0.00 | 0.00 | 0.00 | 83 | 1010.4 |
| 20260506021539 | 49 | 318 | 4.0 | 5.0 | 0.00 | 0.00 | 0.00 | 83 | 1010.3 |
| 20260506021039 | 49 | 17 | 5.0 | 9.0 | 0.00 | 0.00 | 0.00 | 83 | 1010.4 |
| 20260506020539 | 49 | 31 | 3.0 | 4.0 | 0.00 | 0.00 | 0.00 | 83 | 1010.4 |
| 20260506020039 | 49 | 7 | 3.0 | 7.0 | 0.00 | 0.00 | 0.00 | 83 | 1010.4 |
| 20260506015539 | 49 | 321 | 2.0 | 7.0 | 0.00 | 0.00 | 0.00 | 83 | 1010.4 |
| 20260506015039 | 49 | 344 | 5.0 | 7.0 | 0.00 | 0.00 | 0.00 | 83 | 1010.5 |
| 20260506014539 | 49 | 304 | 3.0 | 9.0 | 0.00 | 0.00 | 0.00 | 83 | 1010.5 |
| 20260506014039 | 49 | 321 | 2.0 | 5.0 | 0.00 | 0.00 | 0.00 | 83 | 1010.4 |
| 20260506013539 | 49 | 327 | 3.0 | 7.0 | 0.00 | 0.00 | 0.00 | 83 | 1010.4 |
| 20260506013039 | 49 | 314 | 3.0 | 7.0 | 0.00 | 0.00 | 0.00 | 83 | 1010.4 |
| 20260506012539 | 49 | 310 | 2.0 | 5.0 | 0.00 | 0.00 | 0.00 | 83 | 1010.4 |
| 20260506012039 | 49 | 306 | 3.0 | 7.0 | 0.00 | 0.00 | 0.00 | 83 | 1010.5 |
| 20260506011539 | 49 | 332 | 8.0 | 10.0 | 0.00 | 0.00 | 0.00 | 83 | 1010.5 |
| 20260506011039 | 49 | 311 | 3.0 | 6.0 | 0.00 | 0.00 | 0.00 | 83 | 1010.5 |
| 20260506010539 | 49 | 292 | 5.0 | 7.0 | 0.00 | 0.00 | 0.00 | 83 | 1010.5 |
| 20260506010059 | 49 | 336 | 6.0 | 8.0 | 0.00 | 0.00 | 0.00 | 82 | 1010.6 |
| 20260506005559 | 49 | 318 | 6.0 | 7.0 | 0.00 | 0.00 | 0.00 | 82 | 1010.7 |
| 20260506005039 | 49 | 333 | 5.0 | 9.0 | 0.00 | 0.00 | 0.00 | 82 | 1010.7 |
| 20260506004621 | 49 | 339 | 3.0 | 9.0 | 0.00 | 0.00 | 0.00 | 82 | 1010.8 |
| 20260506004039 | 49 | 321 | 5.0 | 9.0 | 0.00 | 0.00 | 0.00 | 82 | 1010.8 |
| 20260506003539 | 49 | 330 | 3.0 | 7.0 | 0.00 | 0.00 | 0.00 | 82 | 1010.8 |
| 20260506003039 | 49 | 296 | 5.0 | 6.0 | 0.00 | 0.00 | 0.00 | 81 | 1010.8 |
| 20260506002539 | 49 | 321 | 5.0 | 6.0 | 0.00 | 0.00 | 0.00 | 81 | 1010.9 |
| 20260506002039 | 49 | 334 | 4.0 | 5.0 | 0.00 | 0.00 | 0.00 | 81 | 1011.0 |
| 20260506001539 | 49 | 36 | 4.0 | 7.0 | 0.00 | 0.00 | 0.00 | 80 | 1011.0 |
| 20260506001039 | 49 | 354 | 4.0 | 4.0 | 0.00 | 0.00 | 0.00 | 80 | 1011.0 |
| 20260506000559 | 49 | 310 | 4.0 | 4.0 | 0.00 | 0.00 | 0.00 | 80 | 1011.0 |
| 20260506000039 | 49 | 326 | 3.0 | 6.0 | 0.00 | 0.00 | 0.00 | 80 | 1011.1 |
| 20260505235539 | 49 | 356 | 2.0 | 5.0 | 0.00 | 0.00 | 0.00 | 80 | 1011.1 |
| 20260505235059 | 49 | 271 | 2.0 | 5.0 | 0.00 | 0.00 | 0.00 | 80 | 1011.1 |
| 20260505234539 | 49 | 25 | 5.0 | 6.0 | 0.00 | 0.00 | 0.00 | 80 | 1011.1 |
| 20260505234039 | 49 | 330 | 3.0 | 6.0 | 0.00 | 0.00 | 0.00 | 80 | 1011.1 |
| 20260505233539 | 48 | 21 | 1.0 | 4.0 | 0.00 | 0.00 | 0.00 | 79 | 1011.2 |
| 20260505233059 | 49 | 21 | 4.0 | 8.0 | 0.00 | 0.00 | 0.00 | 79 | 1011.2 |
| 20260505232539 | 49 | 313 | 3.0 | 4.0 | 0.00 | 0.00 | 0.00 | 78 | 1011.3 |
| 20260505232059 | 49 | 336 | 4.0 | 4.0 | 0.00 | 0.00 | 0.00 | 78 | 1011.3 |
| 20260505231539 | 49 | 283 | 4.0 | 5.0 | 0.00 | 0.00 | 0.00 | 78 | 1011.3 |
| 20260505231040 | 49 | 47 | 5.0 | 6.0 | 0.00 | 0.00 | 0.00 | 78 | 1011.4 |
| 20260505230559 | 49 | 310 | 2.0 | 3.0 | 0.00 | 0.00 | 0.00 | 78 | 1011.4 |
| 20260505230039 | 49 | 3 | 4.0 | 5.0 | 0.00 | 0.00 | 0.00 | 77 | 1011.4 |
| 20260505225539 | 49 | 36 | 3.0 | 5.0 | 0.00 | 0.00 | 0.00 | 77 | 1011.4 |
| 20260505225059 | 49 | 298 | 4.0 | 6.0 | 0.00 | 0.00 | 0.00 | 77 | 1011.5 |
| 20260505224539 | 49 | 301 | 4.0 | 5.0 | 0.00 | 0.00 | 0.00 | 77 | 1011.5 |
| 20260505224039 | 49 | 312 | 3.0 | 7.0 | 0.00 | 0.00 | 0.00 | 77 | 1011.4 |
| 20260505223539 | 49 | 6 | 3.0 | 9.0 | 0.00 | 0.00 | 0.00 | 77 | 1011.4 |
| 20260505223039 | 49 | 329 | 4.0 | 7.0 | 0.00 | 0.00 | 0.00 | 78 | 1011.4 |
| 20260505222539 | 49 | 31 | 2.0 | 7.0 | 0.00 | 0.00 | 0.00 | 78 | 1011.5 |
| 20260505222039 | 49 | 296 | 4.0 | 6.0 | 0.00 | 0.00 | 0.00 | 78 | 1011.5 |
| 20260505221539 | 49 | 319 | 3.0 | 4.0 | 0.00 | 0.00 | 0.00 | 78 | 1011.5 |
| 20260505221039 | 49 | 338 | 5.0 | 7.0 | 0.00 | 0.00 | 0.00 | 78 | 1011.6 |
| 20260505220539 | 49 | 354 | 3.0 | 5.0 | 0.00 | 0.00 | 0.00 | 77 | 1011.6 |
| 20260505220039 | 49 | 325 | 4.0 | 7.0 | 0.00 | 0.00 | 0.00 | 77 | 1011.7 |
| 20260505215539 | 50 | 348 | 5.0 | 7.0 | 0.00 | 0.00 | 0.00 | 77 | 1011.7 |
| 20260505215039 | 50 | 292 | 3.0 | 4.0 | 0.00 | 0.00 | 0.00 | 77 | 1011.7 |
| 20260505214539 | 50 | 326 | 2.0 | 7.0 | 0.00 | 0.00 | 0.00 | 76 | 1011.8 |
| 20260505214039 | 50 | 345 | 4.0 | 6.0 | 0.00 | 0.00 | 0.00 | 76 | 1011.8 |
| 20260505213541 | 50 | 337 | 3.0 | 5.0 | 0.00 | 0.00 | 0.00 | 76 | 1011.8 |
| 20260505213039 | 50 | 306 | 4.0 | 5.0 | 0.00 | 0.00 | 0.00 | 76 | 1011.8 |
| 20260505212539 | 50 | 314 | 3.0 | 5.0 | 0.00 | 0.00 | 0.00 | 75 | 1011.8 |
| 20260505212039 | 50 | 310 | 4.0 | 5.0 | 0.00 | 0.00 | 0.00 | 76 | 1011.9 |
| 20260505211539 | 50 | 291 | 4.0 | 5.0 | 0.00 | 0.00 | 0.00 | 75 | 1011.9 |
| 20260505211039 | 50 | 298 | 4.0 | 6.0 | 0.00 | 0.00 | 0.00 | 75 | 1011.8 |
| 20260505210540 | 51 | 337 | 6.0 | 8.0 | 0.00 | 0.00 | 0.00 | 75 | 1011.9 |
| 20260505210039 | 51 | 284 | 6.0 | 10.0 | 0.00 | 0.00 | 0.00 | 75 | 1011.9 |
| 20260505205539 | 51 | 310 | 6.0 | 8.0 | 0.00 | 0.00 | 0.00 | 75 | 1011.9 |
| 20260505205039 | 51 | 325 | 3.0 | 7.0 | 0.00 | 0.00 | 0.00 | 75 | 1012.0 |
| 20260505204539 | 51 | 305 | 5.0 | 7.0 | 0.00 | 0.00 | 0.00 | 74 | 1011.9 |
| 20260505204039 | 51 | 337 | 4.0 | 6.0 | 0.00 | 0.00 | 0.00 | 74 | 1012.0 |
| 20260505203539 | 51 | 69 | 1.0 | 8.0 | 0.00 | 0.00 | 0.00 | 74 | 1012.0 |
| 20260505203039 | 51 | 313 | 5.0 | 9.0 | 0.00 | 0.00 | 0.00 | 74 | 1012.0 |
| 20260505202539 | 51 | 350 | 5.0 | 10.0 | 0.00 | 0.00 | 0.00 | 74 | 1012.0 |
| 20260505202040 | 51 | 312 | 4.0 | 8.0 | 0.00 | 0.00 | 0.00 | 74 | 1011.9 |
| 20260505201539 | 51 | 300 | 3.0 | 8.0 | 0.00 | 0.00 | 0.00 | 74 | 1011.9 |
| 20260505201059 | 51 | 291 | 5.0 | 8.0 | 0.00 | 0.00 | 0.00 | 74 | 1011.8 |
| 20260505200539 | 51 | 344 | 2.0 | 6.0 | 0.00 | 0.00 | 0.00 | 74 | 1011.9 |
| 20260505200041 | 52 | 350 | 6.0 | 8.0 | 0.00 | 0.00 | 0.00 | 74 | 1011.9 |
| 20260505195559 | 52 | 306 | 4.0 | 5.0 | 0.00 | 0.00 | 0.00 | 74 | 1011.9 |
| 20260505195039 | 52 | 302 | 1.0 | 6.0 | 0.00 | 0.00 | 0.00 | 74 | 1011.8 |